Location: Unspecified
(0.0000°N, 0.0000°E)
Time: 09:10:16
(UTC+00:00)

A-11 Canister half - All Passes

Search period start: 03 April 2020 00:00
Search period end: 13 April 2020 00:00
Orbit: 1524 x 1685 km, 47.3° (Epoch: 02 April)

Date Brightness Start Highest point End Pass type
(mag) Time Alt. Az. Time Alt. Az. Time Alt. Az.
03 Apr - 06:07:46 10° N 06:15:13 25° NE 06:22:30 10° E daylight
03 Apr - 08:10:47 10° NW 08:20:09 66° SW 08:29:22 10° SSE daylight
03 Apr - 10:24:08 10° SW 10:25:34 10° SW 10:27:00 10° SW daylight
03 Apr - 18:56:49 10° SSW 19:06:28 57° SE 19:16:19 10° NE visible
03 Apr - 21:02:56 10° WSW 21:11:30 32° NW 21:20:12 10° N visible
04 Apr - 05:46:21 10° N 05:53:32 23° NE 06:00:32 10° E daylight
04 Apr - 07:49:04 10° NW 07:58:32 71° SW 08:07:48 10° SSE daylight
04 Apr - 10:00:56 10° WSW 10:03:50 12° SW 10:06:46 10° SSW daylight
04 Apr - 18:35:16 10° SSW 18:44:48 53° SE 18:54:32 10° NE visible
04 Apr - 20:41:04 10° WSW 20:49:48 35° NW 20:58:43 10° NNE visible
05 Apr - 05:24:58 10° N 05:31:51 22° NE 05:38:35 10° E visible
05 Apr - 07:27:23 10° NW 07:36:54 76° SW 07:46:12 10° SE daylight
05 Apr - 09:38:18 10° WSW 09:42:08 13° SW 09:45:59 10° SSW daylight
05 Apr - 18:13:44 10° SSW 18:23:08 50° SE 18:32:45 10° ENE visible
05 Apr - 20:19:13 10° WSW 20:28:07 37° NW 20:37:11 10° NNE visible
06 Apr - 05:03:37 10° N 05:10:10 20° NE 05:16:33 10° E visible
06 Apr - 07:05:42 10° NW 07:15:17 81° SW 07:24:37 10° SE daylight
06 Apr - 09:15:53 10° WSW 09:20:26 14° SW 09:24:59 10° SSW daylight
06 Apr - 17:52:13 10° SSW 18:01:29 46° SE 18:10:56 10° ENE daylight
06 Apr - 19:57:24 10° WSW 20:06:26 40° NW 20:15:41 10° NNE visible
07 Apr - 04:42:18 10° N 04:48:28 18° NE 04:54:29 10° E visible
07 Apr - 06:44:01 10° NW 06:53:39 86° SW 07:03:01 10° SE daylight
07 Apr - 08:53:35 10° W 08:58:45 16° SW 09:03:54 10° SSW daylight
07 Apr - 17:30:43 10° SSW 17:39:49 43° SE 17:49:06 10° ENE daylight
07 Apr - 19:35:35 10° WSW 19:44:45 43° NW 19:54:08 10° NNE visible
08 Apr - 04:21:01 10° N 04:26:46 17° NE 04:32:23 10° E visible
08 Apr - 06:22:22 10° NW 06:32:01 88° NE 06:41:24 10° SE daylight
08 Apr - 08:31:22 10° W 08:37:03 17° SW 08:42:43 10° S daylight
08 Apr - 17:09:13 10° SSW 17:18:09 40° SE 17:27:16 10° ENE daylight
08 Apr - 19:13:47 10° WSW 19:23:04 46° NW 19:32:36 10° NNE visible
09 Apr - 03:59:47 10° NNE 04:05:03 16° NE 04:10:12 10° ENE visible
09 Apr - 06:00:43 10° NW 06:10:23 83° NE 06:19:47 10° SE daylight
09 Apr - 08:09:15 10° W 08:15:22 19° SW 08:21:29 10° S daylight
09 Apr - 16:47:44 10° SSW 16:56:29 37° SE 17:05:24 10° ENE daylight
09 Apr - 18:52:01 10° WSW 19:01:23 49° NW 19:11:02 10° NNE visible
10 Apr - 03:38:38 10° NNE 03:43:20 14° NE 03:47:56 10° ENE visible
10 Apr - 05:39:04 10° NW 05:48:45 78° NE 05:58:08 10° SE visible
10 Apr - 07:47:09 10° W 07:53:42 21° SW 08:00:12 10° S daylight
10 Apr - 16:26:17 10° SSW 16:34:48 34° SE 16:43:31 10° ENE daylight
10 Apr - 18:30:16 10° SW 18:39:43 52° NW 18:49:27 10° NNE visible
11 Apr - 03:17:35 10° NNE 03:21:36 13° NE 03:25:33 10° ENE visible
11 Apr - 05:17:26 10° NNW 05:27:07 73° NE 05:36:29 10° SE visible
11 Apr - 07:25:06 10° W 07:32:02 22° SW 07:38:53 10° S daylight
11 Apr - 16:04:51 10° S 16:13:08 32° SE 16:21:36 10° ENE daylight
11 Apr - 18:08:33 10° SW 18:18:03 56° NW 18:27:52 10° NNE visible
12 Apr - 02:56:42 10° NNE 02:59:51 12° NE 03:02:59 10° ENE visible
12 Apr - 04:55:49 10° NNW 05:05:29 68° NE 05:14:49 10° SE visible
12 Apr - 07:03:06 10° W 07:10:22 24° SW 07:17:33 10° S daylight
12 Apr - 15:43:25 10° S 15:51:28 30° SE 15:59:40 10° ENE daylight
12 Apr - 17:46:49 10° SW 17:56:23 60° NW 18:06:16 10° NNE daylight
